Wind_Speed
14 14 14 17 18 18 17 17 20 23 26 28 26 21 19 21 23 23 23 25 26 26 26 24 24 22 18 15 15 14 14 14 13 11 11 10 11 12 14 16 19 21 23 24 23 22 20 20 20 20 19 18 16 14 12 10 9 8 8 10 11 12 11 12 11 9 8 7 9 12 14 12 8 5 5 5 5 5 5 5 6 6 7 8 9 10 10 11
16 14 13 15 16 15 17 20 23 24 25 25 22 18 18 21 23 24 26 26 26 26 26 23 21 20 17 14 14 15 15 15 13 12 12 12 12 15 18 20 22 23 24 24 23 22 20 19 20 19 18 16 14 12 10 8 7 7 8 10 11 11 11 10 9 8 7 7 9 13 14 10 6 4 4 4 4 4 4 5 5 6 6 7 8 9 10 12
15 11 10 13 16 15 16 21 23 22 22 21 20 20 19 21 24 27 27 26 26 26 24 21 17 17 16 15 15 16 16 16 14 13 12 13 15 18 20 22 23 24 24 24 22 22 21 19 19 18 16 13 12 9 8 6 6 7 9 10 10 10 10 9 8 7 7 7 10 13 13 9 4 2 2 3 4 4 5 5 5 5 6 6 8 9 11 12
12 11 12 14 17 15 15 20 22 21 21 19 20 21 21 23 26 28 27 26 26 24 22 19 16 16 16 15 16 16 17 16 15 14 12 15 18 20 21 22 23 24 24 24 22 21 20 19 17 16 14 11 9 7 5 6 6 8 9 9 9 9 8 8 8 7 6 7 10 13 12 7 3 1 1 1 3 4 5 5 5 5 5 6 8 9 11 13
8 9 12 15 18 16 17 21 24 22 19 18 20 22 24 26 28 27 27 26 25 23 22 19 17 17 16 16 16 16 17 17 16 14 13 16 18 20 21 22 23 24 24 23 21 20 19 18 15 13 11 9 6 4 3 6 7 8 8 8 8 7 7 7 7 7 7 8 11 13 11 6 2 0 1 1 2 4 5 6 6 6 6 6 8 10 12 14
7 8 11 16 17 17 19 20 23 21 18 20 23 25 27 28 28 27 27 26 24 23 21 19 18 18 17 18 17 16 17 17 17 15 14 17 18 19 20 21 22 23 23 21 20 19 17 16 13 11 9 6 3 2 4 6 7 7 7 7 6 6 6 6 7 7 7 9 11 12 10 6 3 2 2 1 2 3 5 5 6 6 6 7 8 10 12 14
7 8 11 17 18 19 20 20 21 20 20 24 26 29 30 29 28 28 27 26 24 21 19 18 18 19 19 18 16 15 17 18 17 16 16 17 18 18 19 20 21 22 21 20 19 18 16 14 11 9 7 4 1 2 4 6 6 7 7 6 5 5 5 5 6 7 8 10 11 11 9 6 4 3 3 2 2 3 4 5 5 6 6 8 9 11 13 14
8 10 15 17 19 20 19 20 22 22 24 26 27 29 30 29 28 27 27 26 22 19 18 19 19 20 19 18 16 16 18 19 18 17 18 18 17 17 17 18 20 20 20 18 17 16 14 12 10 8 5 3 2 4 4 5 5 6 6 5 4 4 4 4 5 7 9 11 11 10 8 6 4 4 5 4 4 3 4 5 5 6 7 8 10 11 13 14
11 14 17 19 21 22 22 23 25 26 27 27 27 28 28 28 27 27 26 23 19 18 19 20 21 20 19 17 17 17 18 19 19 19 18 17 16 16 16 17 17 18 18 17 15 14 12 10 8 5 3 2 3 4 4 5 5 4 4 4 4 3 4 4 5 7 9 11 11 9 7 5 5 5 6 6 5 4 4 5 6 6 7 8 9 11 12 13
18 21 24 25 27 27 27 27 28 28 27 26 27 27 27 28 27 26 23 19 19 19 20 22 22 20 18 17 18 18 18 18 19 19 18 17 16 15 14 15 16 16 15 14 12 11 10 8 6 4 2 2 3 3 4 5 4 3 4 4 4 4 4 5 6 7 9 11 11 8 6 5 4 5 6 7 7 6 6 6 7 7 8 8 10 11 13 14
27 28 30 31 31 31 30 29 28 28 27 26 27 27 27 27 26 23 20 19 19 21 22 23 22 20 18 18 18 19 18 18 19 19 18 17 16 15 13 13 14 14 13 11 10 9 9 8 6 3 2 2 2 3 4 3 3 3 3 3 4 4 5 6 7 8 10 11 10 7 5 4 4 5 7 8 9 8 8 8 8 9 10 10 11 12 14 15
29 29 29 30 31 30 29 28 27 27 27 27 26 26 26 25 22 20 19 20 21 23 24 23 21 19 18 18 18 18 18 18 19 19 18 17 16 15 13 12 12 12 12 10 9 9 8 7 6 4 3 2 2 3 3 2 2 3 3 4 4 5 6 6 8 9 10 11 9 6 6 5 4 6 7 9 10 10 10 10 10 11 12 12 13 13 15 16
26 27 27 27 27 27 27 27 27 27 27 26 25 24 23 22 20 19 20 21 23 24 24 22 20 19 18 18 18 18 18 18 19 19 18 17 15 15 13 11 10 10 10 9 9 9 7 6 5 4 3 2 2 2 2 2 3 3 3 4 5 6 6 7 9 10 10 10 9 6 6 6 5 6 7 9 11 11 11 12 12 13 13 13 14 15 16 17
24 23 24 25 25 25 25 25 25 25 25 24 23 22 21 20 20 21 22 23 24 25 24 21 19 19 19 18 17 17 18 18 19 18 18 16 15 14 12 10 9 8 9 9 9 8 7 5 4 3 2 1 1 2 1 2 2 3 4 4 6 7 8 9 10 10 10 10 8 5 5 6 5 6 7 9 11 12 12 13 13 14 14 14 15 17 18 19
22 21 22 23 23 23 22 21 22 22 21 21 20 20 20 20 21 22 24 25 25 24 22 19 18 18 19 18 17 17 18 19 19 18 17 16 14 13 12 10 9 9 9 9 8 7 6 4 4 3 1 1 1 1 1 2 2 4 6 6 7 8 8 10 10 10 10 9 7 6 5 5 6 7 8 9 10 12 13 14 14 14 14 15 16 18 19 20
21 21 21 22 22 21 20 18 18 18 19 19 19 20 20 21 22 23 25 26 24 23 20 18 18 18 18 18 18 18 19 19 18 18 17 15 14 13 11 10 10 10 10 9 8 6 5 4 3 2 1 0 1 1 0 2 3 5 6 7 8 8 9 10 10 10 9 7 6 6 6 6 6 7 8 10 11 12 14 15 15 15 14 15 17 18 20 20
20 20 20 20 19 19 18 16 16 17 18 19 20 21 21 22 24 25 26 25 23 21 20 19 19 19 19 18 18 19 19 18 17 16 15 14 13 12 12 11 11 10 9 8 7 5 5 4 3 2 1 1 1 0 1 3 4 6 7 9 9 9 9 10 10 10 9 7 6 6 6 6 7 8 9 10 11 13 14 15 16 15 14 15 17 18 20 21
20 20 19 18 17 17 16 15 15 17 18 20 21 22 23 24 26 26 26 24 22 20 19 19 20 19 19 18 18 18 18 17 17 15 14 14 13 12 12 11 11 9 8 7 6 5 4 4 3 2 2 2 1 1 2 4 5 7 8 9 9 9 9 10 10 10 10 9 8 8 8 7 7 8 9 10 11 12 14 15 16 15 14 15 16 17 18 20
20 19 18 17 16 15 15 14 15 17 19 20 21 22 24 26 27 27 25 22 20 19 18 19 19 19 18 17 16 17 17 17 16 15 14 13 13 12 12 10 9 8 6 6 5 5 4 3 3 3 3 3 2 2 3 4 6 8 9 10 10 10 9 10 11 11 12 11 11 11 10 9 8 8 9 10 11 12 13 14 15 15 15 15 16 16 17 18
18 18 17 15 14 14 14 14 15 17 19 21 22 23 25 26 27 26 24 21 19 17 17 17 17 18 17 16 16 16 15 15 14 14 13 12 12 12 11 9 7 6 5 5 5 5 4 4 4 4 4 4 3 3 3 4 7 9 10 10 10 10 10 10 10 10 11 11 12 12 12 11 10 9 9 10 11 12 12 12 13 14 14 14 14 15 16 17
15 16 15 14 13 13 14 15 15 17 19 21 22 24 25 26 25 24 22 20 17 16 15 15 16 17 16 15 15 15 14 14 13 13 12 12 11 10 9 7 6 5 5 5 5 5 5 5 5 5 5 4 4 3 4 4 6 8 9 10 11 11 11 11 11 10 10 10 11 11 11 10 10 9 10 11 11 11 11 10 10 11 12 13 13 15 16 17
12 12 12 12 12 13 14 15 16 17 19 21 22 23 24 24 23 21 19 17 16 15 14 14 15 16 15 15 15 14 14 13 12 12 11 11 10 9 7 6 5 4 4 5 5 6 6 6 6 6 5 5 4 4 4 4 5 7 8 8 10 11 11 12 11 11 10 10 9 9 9 9 9 9 9 9 9 9 9 8 8 9 11 12 13 15 15 16
9 9 10 10 11 12 13 15 16 17 18 20 21 22 23 23 22 20 18 15 14 14 13 13 14 14 14 14 14 14 13 12 11 11 11 10 9 8 6 5 4 4 5 6 6 6 6 6 6 6 6 5 5 5 5 4 4 5 6 7 8 10 11 11 11 11 10 10 9 9 9 9 8 8 8 7 7 7 7 8 9 10 11 12 13 14 15 15
7 7 8 9 10 12 13 14 15 16 17 18 19 20 21 21 20 19 17 15 13 13 12 12 13 12 12 13 13 13 12 11 11 10 10 9 8 6 5 5 5 5 6 6 7 7 7 7 7 7 7 6 6 6 6 5 4 4 4 5 7 9 10 11 11 11 11 10 9 9 9 8 8 7 7 6 6 6 7 8 9 11 11 12 12 13 13 14
7 7 7 9 11 12 13 13 14 15 15 16 17 18 19 20 20 18 17 15 13 12 11 11 11 11 11 12 12 12 12 11 10 10 9 8 7 6 6 6 6 6 6 7 8 8 8 8 8 8 7 7 7 7 7 6 5 5 5 6 8 9 10 10 11 12 12 12 10 10 9 8 8 7 6 6 6 7 7 8 9 10 11 11 11 12 13 14
7 7 7 9 11 13 13 13 14 14 15 16 17 18 19 19 19 18 16 14 12 11 10 10 10 10 11 11 11 11 11 11 11 10 9 8 8 7 7 7 7 7 7 8 8 8 8 8 8 8 8 7 8 8 8 8 7 6 6 7 9 9 10 11 11 12 13 13 11 10 10 9 9 8 7 7 8 8 8 8 9 10 10 11 11 11 12 13
7 7 8 10 12 13 14 14 14 14 15 15 16 17 17 18 17 16 14 13 12 11 10 10 10 11 11 11 11 11 11 11 11 10 9 9 8 8 7 8 7 7 8 8 8 8 8 8 8 9 9 8 8 9 10 10 9 8 8 8 9 10 10 11 11 12 13 13 12 11 10 9 9 9 8 8 8 8 9 9 9 10 10 11 12 12 13 14
7 7 8 10 11 12 13 13 13 14 14 14 15 15 15 16 15 14 13 12 11 11 10 10 10 11 11 11 11 12 12 12 12 11 10 10 9 8 8 8 8 8 8 8 8 8 8 8 9 9 10 10 10 10 11 11 11 10 10 10 10 10 11 11 11 12 12 13 13 11 10 8 8 8 7 7 7 8 8 9 10 10 10 12 13 14 15 16
7 8 8 9 10 11 11 12 12 12 13 13 13 14 14 14 13 12 12 11 10 10 10 10 11 11 12 12 12 13 13 12 12 11 10 10 9 9 9 9 9 8 8 8 8 8 9 9 9 10 10 11 11 11 12 12 12 12 11 11 11 11 11 11 11 11 12 13 12 11 10 8 7 7 7 7 6 6 7 8 8 9 10 12 14 15 17 18
8 9 9 10 10 10 10 11 10 11 12 12 12 13 13 13 12 11 11 10 10 9 10 11 11 11 12 12 13 13 13 13 12 10 10 10 9 9 9 9 9 8 8 8 9 9 9 9 10 11 11 12 13 13 13 13 13 13 13 12 12 12 12 12 12 11 11 11 11 10 9 8 6 6 6 6 5 5 6 7 8 9 10 12 13 16 18 20
10 10 11 10 10 10 10 10 10 11 11 11 11 11 12 12 11 11 11 10 10 9 10 11 11 12 13 13 13 13 13 12 11 10 9 9 9 9 9 9 9 9 9 9 10 10 11 11 11 12 13 13 14 14 14 14 14 14 14 13 13 13 12 12 12 11 11 11 10 10 9 8 7 6 5 6 6 6 6 7 8 9 10 12 14 17 20 22
11 12 12 12 11 11 11 11 11 11 11 11 11 11 11 11 11 11 11 10 10 9 10 11 12 13 13 13 13 13 12 11 9 9 9 9 9 9 9 9 9 10 10 10 11 11 12 12 13 13 14 14 15 15 15 15 15 15 14 14 14 14 13 13 12 11 12 11 11 10 9 8 7 6 6 6 7 7 8 8 9 10 12 15 17 19 22 23
12 13 13 12 12 12 12 11 12 11 11 10 10 10 10 10 10 11 11 10 9 10 10 11 12 13 13 13 13 12 11 10 9 8 9 9 9 9 10 10 10 11 11 11 12 12 12 13 14 14 15 15 16 16 16 16 16 15 15 14 14 14 14 13 12 12 11 11 11 10 9 8 8 8 8 8 8 9 10 11 12 14 16 18 21 22 23 23
13 14 13 12 12 12 12 12 12 11 10 9 9 9 10 9 10 10 10 9 9 9 10 11 11 12 12 12 12 11 11 10 9 9 8 9 9 10 10 10 11 11 12 12 12 12 13 14 14 14 15 15 16 16 17 17 16 16 16 15 15 15 14 14 13 13 12 11 12 12 10 10 9 10 10 10 11 12 13 15 17 19 21 22 23 23 24 24
14 14 13 12 11 12 12 12 11 10 9 8 8 8 9 9 9 9 9 9 9 9 10 10 11 12 11 12 12 11 11 10 9 9 9 9 10 10 10 10 11 11 12 12 12 12 13 14 14 14 15 16 16 17 17 17 17 16 16 16 16 15 15 15 14 14 13 11 12 13 13 12 12 12 12 13 14 15 16 17 20 21 22 23 23 24 24 24
15 14 13 12 12 12 12 11 10 9 8 8 8 8 8 8 8 8 9 9 9 9 9 10 11 12 12 12 12 12 11 11 10 9 9 10 10 10 11 10 10 11 11 12 12 12 13 14 14 14 15 16 16 17 17 17 17 17 17 17 17 16 16 16 15 15 15 13 12 13 15 15 14 13 14 15 16 16 18 19 20 22 22 22 23 23 24 24
15 15 14 13 12 12 11 10 9 8 8 8 8 8 8 8 8 8 9 9 9 9 10 10 11 12 12 13 13 12 12 11 10 10 10 10 10 11 11 10 10 11 11 12 12 12 13 14 14 15 16 16 16 17 17 18 18 17 18 17 18 17 17 17 16 16 15 14 13 12 14 17 17 16 16 17 17 17 18 18 19 21 22 21 22 22 23 24
15 15 14 12 11 11 10 9 8 7 7 8 8 8 8 8 8 9 9 9 9 9 10 11 12 12 13 14 13 13 12 11 11 11 11 11 11 11 11 10 10 11 12 12 12 12 13 13 14 15 15 16 16 16 17 17 17 17 17 17 18 18 17 17 17 16 16 15 13 12 13 17 19 18 18 18 18 18 18 17 17 19 21 21 21 22 23 24
14 13 12 11 10 10 10 9 8 7 7 8 8 8 8 8 9 9 9 9 9 10 10 11 12 13 14 14 14 13 13 12 12 12 12 12 12 11 11 11 11 11 12 12 12 12 12 12 13 13 14 15 15 15 16 16 16 16 16 16 17 17 17 17 17 17 16 16 15 12 11 15 18 19 19 19 19 19 18 16 15 18 20 21 21 23 24 25
12 11 11 10 9 9 9 8 8 8 8 8 8 8 8 9 9 9 9 10 10 11 11 12 13 13 14 14 14 14 14 13 13 13 13 13 12 12 11 11 11 11 11 12 12 12 12 12 12 13 13 14 14 14 15 15 15 16 16 16 16 16 16 16 16 16 16 16 16 13 10 13 17 17 19 20 19 18 17 16 17 19 21 21 22 24 26 27
11 10 10 10 9 9 9 9 9 9 9 8 8 8 9 9 9 9 9 10 11 11 12 12 13 14 14 14 15 15 15 14 14 14 14 14 13 12 12 12 12 12 12 12 13 13 13 13 13 13 13 13 14 14 14 14 15 15 16 16 16 16 16 16 15 16 16 16 17 15 11 13 16 16 17 19 19 19 18 18 19 21 23 23 24 26 27 28
11 10 11 11 10 10 10 9 9 9 9 9 8 9 10 10 9 9 10 11 11 11 12 13 13 14 14 15 15 15 15 15 15 15 14 14 14 13 13 13 13 13 14 14 14 14 14 14 14 14 14 13 14 14 13 14 14 15 15 15 16 16 16 16 15 15 16 15 18 17 12 11 16 19 19 19 20 20 20 21 22 23 25 27 28 29 30 31
11 11 11 11 11 11 10 10 10 9 9 9 9 10 10 9 10 10 10 11 11 12 12 13 13 14 14 15 15 15 15 15 15 15 15 15 15 14 14 14 14 15 15 15 16 16 16 16 16 15 15 14 14 14 13 14 14 14 15 15 15 16 16 17 16 16 15 14 18 18 11 11 18 22 22 22 22 23 23 24 25 26 28 31 32 33 34 35
12 12 12 12 12 11 11 11 10 10 10 10 10 10 9 10 10 10 11 11 12 12 13 13 13 14 14 15 15 16 16 16 15 15 15 15 16 16 15 16 16 16 17 17 17 17 17 17 17 16 15 15 15 15 14 14 15 15 16 17 17 17 17 17 17 17 17 16 19 19 14 15 20 24 25 26 27 27 27 28 30 31 32 34 35 36 38 38
13 13 13 13 13 12 11 11 11 11 10 10 10 10 10 10 11 11 11 12 12 13 13 14 14 14 15 15 16 16 16 16 16 16 16 16 17 16 17 17 18 18 18 18 18 18 18 18 18 17 17 16 16 16 15 15 16 16 17 19 20 20 21 20 20 20 21 22 21 20 20 20 21 24 30 32 32 32 32 33 35 36 37 38 39 40 41 42
14 14 13 13 13 13 12 12 12 11 11 10 10 10 10 11 11 12 12 12 13 14 14 15 15 15 16 16 16 17 17 17 17 17 17 18 18 18 18 19 19 19 19 18 19 18 18 18 19 19 19 19 19 18 18 18 18 18 18 20 22 23 23 23 23 23 26 26 23 21 25 26 21 22 31 35 36 37 37 37 38 40 41 43 43 44 45 46
14 14 14 14 13 13 12 12 12 12 11 11 11 11 12 12 12 13 13 14 14 15 15 16 16 17 17 17 17 17 18 18 18 18 18 19 19 19 20 20 20 20 20 20 20 20 19 19 20 21 21 21 21 21 21 20 20 20 20 20 22 24 24 24 24 25 27 29 26 23 27 29 25 25 30 34 37 40 41 41 42 43 44 46 48 49 49 49
15 15 15 15 14 13 13 13 13 13 13 13 13 13 13 14 14 14 14 14 15 16 16 17 18 18 18 18 18 18 19 20 19 20 20 20 21 21 21 21 21 21 21 22 21 21 21 20 21 22 22 22 23 22 22 22 22 21 21 21 22 25 26 26 26 27 29 31 29 27 29 30 29 30 34 36 39 42 44 45 45 47 48 49 51 52 53 53
17 16 16 16 16 15 15 15 15 15 15 15 15 15 15 15 15 15 15 15 16 17 17 18 19 20 20 20 20 20 21 21 21 21 22 23 23 23 23 23 23 22 23 23 23 23 23 22 22 24 23 23 24 24 25 25 25 24 24 23 25 28 29 29 29 30 31 33 33 33 34 33 33 35 38 40 42 44 46 47 49 50 51 52 53 54 56 56
19 18 18 18 17 17 17 17 17 17 17 17 17 16 16 16 16 16 16 16 17 17 18 19 20 20 20 21 22 22 23 23 23 23 24 25 24 25 25 24 24 24 25 25 25 26 26 25 26 27 27 25 25 27 28 29 30 29 26 26 29 32 32 32 32 33 34 35 37 38 38 37 38 40 42 43 44 46 48 49 51 53 54 55 55 56 57 57
21 21 20 20 19 18 18 18 18 18 18 18 18 18 18 18 17 18 18 18 18 18 19 20 21 21 22 22 23 24 24 24 24 25 26 26 26 26 26 26 26 26 27 27 28 28 29 29 29 31 31 29 28 30 31 32 34 32 29 29 33 35 34 34 34 35 36 38 40 41 41 41 42 44 44 45 47 48 50 52 53 54 56 56 57 58 58 58
23 23 22 22 21 20 20 20 19 20 19 20 20 19 19 19 19 20 20 20 20 20 21 21 22 22 23 24 24 25 25 26 26 27 27 27 28 28 28 28 28 28 29 30 30 30 31 32 33 34 36 34 32 33 34 36 37 34 31 33 35 36 36 37 36 37 38 40 42 43 43 44 45 47 48 48 49 51 52 54 55 56 57 58 59 60 59 59
Wind_Direction
163 161 155 154 156 157 158 159 163 166 165 165 167 173 186 187 185 186 176 166 164 162 160 161 158 149 149 163 169 171 168 157 147 148 151 143 140 140 135 133 130 129 130 131 131 131 131 132 133 132 131 129 125 119 108 96 80 64 40 21 19 20 19 19 19 20 25 24 12 1 358 0 10 33 61 62 46 30 24 27 30 32 31 28 22 19 19 19
145 147 153 156 157 156 153 149 150 156 159 165 173 181 188 186 183 177 165 160 163 162 161 159 154 150 154 164 164 160 153 143 137 139 135 133 140 138 134 132 130 130 131 133 133 132 133 134 134 134 133 128 121 114 103 89 67 48 28 16 15 14 17 20 19 21 26 17 4 359 356 0 14 41 66 60 38 24 21 25 28 29 27 22 18 17 17 18
138 153 171 166 160 153 150 150 150 156 165 173 181 183 186 184 176 165 158 160 164 162 158 151 150 152 155 158 156 151 143 134 131 127 128 136 140 136 133 131 131 133 135 136 136 136 137 138 137 135 133 124 117 109 95 78 50 29 17 12 10 11 18 22 19 22 22 8 359 356 355 358 17 49 73 53 31 27 24 24 26 26 21 14 14 14 13 14
136 165 177 165 159 152 154 160 160 164 170 173 176 178 180 173 163 157 158 164 164 160 153 147 153 157 156 154 151 146 136 128 124 122 132 140 137 135 133 133 135 138 140 140 140 140 141 143 140 136 133 124 115 106 80 53 27 14 10 7 6 12 22 23 20 21 15 1 354 353 353 355 12 69 86 32 19 22 25 26 27 23 15 8 7 9 11 12
143 164 170 166 160 157 160 162 164 168 169 169 170 171 167 158 154 155 161 166 162 156 149 149 158 159 155 151 146 140 133 127 123 124 136 138 135 136 135 137 140 143 144 143 144 144 145 145 143 138 134 128 116 99 54 25 11 6 5 2 6 18 26 25 22 17 5 354 349 350 350 347 351 205 228 351 6 13 19 23 24 20 9 1 1 5 10 12
166 161 166 171 165 166 171 167 165 167 166 164 163 160 156 153 154 159 164 163 156 151 148 152 156 153 150 144 140 138 134 128 123 127 135 135 136 137 138 142 144 148 149 147 148 148 148 147 146 142 136 134 124 61 13 9 5 3 0 0 13 27 28 24 19 11 359 349 344 346 347 338 322 247 242 288 338 3 11 13 16 12 2 353 352 357 3 6
177 166 159 165 166 168 175 171 163 160 158 156 156 156 155 155 158 161 161 154 149 149 150 153 151 147 143 139 140 141 134 126 124 130 136 136 137 138 142 145 148 153 153 153 154 153 151 151 153 151 143 149 187 334 353 3 4 2 0 7 25 31 23 16 11 5 354 346 341 342 342 332 307 261 253 273 306 343 358 1 3 1 355 347 345 349 353 355
167 163 154 155 158 158 161 161 156 153 151 151 154 157 158 158 160 158 152 146 147 152 155 152 146 143 142 139 141 139 130 126 128 135 137 136 137 140 143 148 153 157 158 160 161 157 156 159 162 159 158 181 270 317 346 0 2 4 7 18 28 21 9 359 359 357 348 343 341 338 336 328 305 271 258 265 284 314 335 344 349 347 345 341 340 342 345 346
154 154 147 145 147 146 148 151 148 146 147 151 155 158 159 159 157 151 145 145 152 158 157 150 144 143 141 138 139 133 128 130 134 136 136 135 136 139 143 149 156 161 164 166 166 164 164 170 174 169 180 236 289 318 347 358 3 10 15 23 16 359 350 344 345 345 340 339 338 335 330 326 307 275 260 262 273 291 310 323 329 331 333 332 332 334 336 338
136 133 131 132 134 136 139 140 140 142 148 153 156 157 157 154 149 145 143 149 156 159 154 147 144 143 140 139 137 131 131 135 137 136 136 136 136 138 142 148 156 163 168 170 171 173 175 185 190 186 215 265 293 326 350 357 10 18 18 15 356 340 332 333 335 333 332 333 335 332 322 323 308 277 265 264 268 281 293 304 312 317 321 322 323 326 327 331
121 121 123 126 127 128 130 132 135 142 149 152 152 151 149 147 145 144 147 154 156 155 150 145 143 142 142 141 137 134 136 138 138 138 138 138 137 138 142 147 153 159 164 167 174 184 192 200 201 197 221 258 292 343 356 1 19 20 7 354 335 328 321 324 328 327 327 327 332 329 312 311 301 278 269 264 266 278 288 296 303 308 312 314 318 322 323 328
113 115 117 120 122 124 127 131 136 143 147 148 145 144 145 145 146 149 152 154 153 150 145 142 142 143 144 142 137 136 138 140 141 141 141 142 141 140 141 145 149 154 157 159 171 187 197 203 201 195 213 251 309 358 12 13 13 6 349 333 324 322 317 318 323 323 323 324 328 323 302 299 289 277 270 264 267 277 286 293 299 302 305 310 316 320 322 326
107 110 113 116 118 121 126 132 137 141 144 143 141 142 144 146 150 153 152 150 148 144 140 140 143 146 145 140 137 138 140 144 144 144 145 145 145 143 143 147 152 156 157 161 174 185 189 194 197 198 215 260 323 12 26 2 0 355 339 327 321 322 315 316 321 320 321 322 323 314 298 291 278 275 272 266 270 278 285 291 295 298 303 311 318 321 323 326
106 108 113 115 116 118 123 129 133 137 139 139 141 144 147 151 154 153 149 146 143 141 140 143 147 148 142 137 139 142 143 147 147 147 148 148 149 147 147 155 164 168 168 172 179 182 180 182 197 213 231 282 343 30 33 358 356 342 330 322 317 318 315 316 320 319 320 320 314 303 287 278 269 272 273 272 276 281 285 290 294 299 307 317 323 325 328 332
109 110 115 117 116 116 118 123 128 132 137 140 143 148 152 154 153 149 146 144 142 141 143 144 147 145 139 138 144 147 147 149 150 151 151 152 154 154 156 165 176 181 177 175 174 174 175 182 204 227 252 319 32 65 46 349 336 326 323 320 317 318 317 320 318 313 315 312 303 290 272 263 263 268 272 276 281 284 288 292 297 304 312 321 325 327 331 335
114 115 119 118 116 115 117 123 129 136 143 146 149 152 153 151 149 147 145 144 143 144 145 145 146 143 139 142 149 152 150 149 150 153 155 156 158 160 163 172 179 179 174 168 166 171 179 189 206 228 241 112 88 90 343 322 318 316 319 321 322 322 321 319 313 306 306 301 289 277 262 252 257 265 271 277 284 287 290 295 301 308 314 320 324 327 331 334
118 120 121 120 119 118 119 126 136 145 150 152 152 151 149 147 146 146 146 147 147 147 146 145 145 143 141 145 151 151 149 147 149 153 155 157 160 163 167 173 176 173 167 163 164 175 185 194 205 212 186 149 135 178 297 315 316 316 323 328 330 329 326 320 312 303 298 290 277 266 258 253 258 268 274 279 285 289 292 296 302 309 313 318 324 327 330 333
123 122 122 122 122 123 123 129 141 147 149 150 149 147 146 146 146 147 149 150 150 150 147 146 146 143 142 145 148 147 145 146 146 149 153 155 159 163 166 170 171 169 165 164 171 183 192 199 205 202 182 180 204 262 299 313 322 330 338 339 340 341 335 327 319 309 298 288 276 267 260 257 260 267 274 279 283 286 290 295 302 308 313 319 324 327 329 331
126 126 125 126 126 126 126 132 142 145 145 146 146 145 145 146 148 150 151 152 152 149 147 148 147 142 142 146 146 145 144 144 144 147 151 156 160 163 166 169 170 169 166 170 179 189 202 211 216 214 206 215 237 270 298 321 338 347 353 355 357 356 347 336 329 320 310 300 290 283 277 273 273 275 280 283 283 283 286 291 300 308 316 323 326 325 327 330
126 128 128 129 130 130 131 136 142 143 143 143 144 145 147 148 151 152 153 153 152 148 147 149 146 143 145 149 150 148 146 145 147 151 156 161 163 164 166 168 170 170 171 178 186 199 213 220 222 221 221 231 246 269 294 331 350 358 6 10 12 10 3 354 342 331 321 314 307 304 303 304 303 303 303 300 297 295 293 295 302 310 319 323 324 325 328 331
123 126 127 130 132 134 137 140 143 143 142 143 145 147 148 150 152 153 154 152 150 148 148 149 148 147 151 156 157 155 154 154 156 158 161 165 166 165 166 169 172 175 182 190 197 212 222 225 226 224 226 235 248 268 290 327 351 3 13 19 20 18 17 12 2 350 339 329 323 323 325 326 324 322 319 314 311 311 312 312 313 316 321 324 326 329 331 334
122 124 126 129 133 135 137 140 142 143 143 143 145 148 150 151 152 153 153 152 150 150 151 152 152 153 159 164 164 163 163 163 163 163 165 166 166 167 168 172 177 187 201 208 213 224 231 231 231 227 226 235 251 269 286 316 346 3 15 23 23 21 19 15 10 4 356 345 338 337 339 338 335 331 327 323 320 322 327 330 330 330 330 331 332 332 333 336
119 121 123 125 129 132 135 139 142 143 143 143 146 150 152 153 154 155 155 155 155 155 155 156 158 160 165 169 172 172 172 171 170 170 168 168 169 172 177 183 194 208 217 220 222 231 238 237 234 229 225 236 255 269 280 301 332 354 10 19 20 18 17 13 7 2 357 350 343 339 337 338 342 341 336 331 327 330 336 339 341 341 339 337 336 335 335 337
116 116 118 122 126 129 134 137 140 141 142 144 147 152 155 157 159 161 161 161 162 161 161 162 165 167 171 175 178 180 180 179 177 176 175 175 177 184 193 201 213 225 229 228 229 236 243 242 236 229 226 239 257 270 277 287 310 332 346 354 357 0 5 5 1 355 351 344 337 331 329 331 338 342 339 336 329 332 338 340 341 342 342 342 341 340 340 341
119 121 123 127 129 130 134 137 139 141 144 148 151 156 160 162 165 167 167 167 170 170 169 171 174 177 179 181 184 187 187 187 185 185 185 186 192 200 208 217 227 238 239 233 233 241 246 243 237 230 230 243 260 272 275 279 294 309 316 321 327 336 345 351 351 349 347 342 333 326 322 320 322 325 327 326 322 325 333 337 338 340 344 345 345 345 344 343
127 132 135 134 133 133 135 138 140 143 148 153 157 160 165 168 170 171 171 172 176 178 178 181 184 188 188 188 191 193 194 196 196 194 195 198 205 211 217 226 236 244 243 237 237 244 248 243 237 233 236 249 265 274 276 277 283 293 301 307 315 325 332 338 340 342 343 341 333 325 321 318 313 310 311 312 314 319 326 331 333 336 340 343 345 345 344 342
140 144 145 140 138 138 138 140 143 147 151 157 160 163 167 170 172 173 173 176 181 184 188 192 195 195 195 195 198 198 198 201 203 201 204 209 214 219 223 233 243 245 242 239 241 247 249 244 240 240 245 256 268 277 279 277 278 284 291 299 310 319 324 330 332 334 339 340 336 327 324 321 313 307 306 305 308 315 319 323 328 333 339 344 346 347 347 346
153 153 150 144 140 140 141 143 147 150 154 159 163 167 170 173 175 177 178 181 184 189 195 200 200 199 199 198 200 202 202 204 206 206 210 215 220 226 231 239 243 243 241 242 245 250 250 247 246 249 253 262 272 279 282 280 280 282 286 294 304 312 317 323 326 330 335 339 340 335 330 328 319 312 311 309 310 313 315 320 326 335 344 350 352 351 350 348
161 160 156 149 144 143 144 147 151 155 158 162 167 171 174 176 178 181 184 187 189 194 201 205 205 203 202 200 201 203 204 205 206 208 212 220 226 233 241 245 243 242 245 247 251 255 255 255 256 257 260 266 273 280 284 282 281 282 285 291 298 303 309 315 319 325 330 336 343 342 339 343 338 329 327 326 326 322 320 325 333 343 352 354 351 348 345 343
166 166 163 157 154 153 153 155 159 163 164 167 171 174 177 180 182 185 190 195 197 202 208 210 210 207 203 202 201 202 204 205 206 208 216 224 233 241 246 248 245 246 250 252 257 260 262 263 263 264 265 269 274 279 284 285 283 284 286 290 294 297 303 309 313 319 323 329 340 345 350 0 358 348 344 343 344 339 334 337 342 347 349 346 343 340 338 336
170 171 170 166 164 164 165 167 169 171 171 172 175 179 181 185 187 189 196 202 204 209 211 211 211 208 203 201 200 200 202 204 206 212 221 230 239 246 248 248 249 252 256 259 262 264 266 267 267 268 268 270 274 278 283 286 286 286 287 289 291 293 298 303 308 312 314 319 332 344 351 357 360 356 352 349 347 342 338 338 337 337 335 333 332 332 331 330
175 176 175 173 171 172 175 178 177 177 177 178 181 182 185 188 191 195 201 205 208 210 210 208 207 205 203 200 199 200 201 203 209 217 227 236 242 247 249 250 254 258 262 264 265 266 268 269 269 270 270 271 274 278 281 284 285 286 286 287 289 290 295 299 301 303 305 311 323 335 338 339 345 345 342 341 340 335 332 329 326 324 324 323 323 323 324 324
180 179 178 176 175 178 182 184 183 182 182 183 185 185 188 191 193 199 204 205 208 209 207 206 204 203 202 201 200 202 203 207 214 221 231 240 244 248 250 255 258 262 266 268 268 269 268 269 270 270 272 273 275 278 281 282 283 283 283 285 286 288 291 293 295 296 299 304 310 316 318 318 323 324 322 325 325 322 320 319 318 316 316 316 316 317 319 321
182 180 179 178 180 183 185 187 187 185 184 186 188 189 193 196 199 203 205 206 210 210 207 207 206 205 205 204 204 206 208 213 219 225 234 242 245 250 253 258 262 264 267 268 268 270 270 270 271 272 274 275 276 278 280 281 281 281 282 283 284 286 288 289 291 292 292 294 296 298 301 303 306 308 307 308 311 310 309 310 310 311 311 312 314 316 318 319
184 183 182 182 185 187 189 190 189 187 187 189 192 195 200 203 206 208 210 213 215 213 211 210 210 210 211 211 211 212 214 217 223 229 237 244 247 252 255 259 262 265 267 269 270 271 272 273 273 274 275 276 277 278 278 279 280 280 281 281 282 283 284 285 287 287 286 284 286 289 292 293 295 298 298 298 301 303 304 306 307 308 310 312 314 316 318 320
186 184 185 187 190 191 192 193 191 190 191 194 199 203 208 210 212 215 217 219 219 218 217 215 215 216 218 218 217 218 219 221 226 233 239 245 249 252 255 257 261 264 267 270 271 273 275 277 278 278 278 277 278 278 278 278 279 280 280 280 281 281 282 283 283 284 285 284 282 285 288 289 290 292 294 296 297 299 302 306 307 308 309 312 314 316 319 322
188 186 186 190 194 195 196 196 196 197 198 202 206 211 216 218 221 223 223 223 223 224 223 221 220 221 222 223 222 222 224 226 232 238 242 245 248 249 251 254 259 265 269 271 275 277 279 281 282 281 281 281 280 280 279 279 279 279 279 279 280 280 281 282 282 282 283 284 283 284 287 289 290 291 292 294 296 298 302 305 307 308 309 312 315 318 321 322
190 189 189 192 197 199 201 202 204 205 207 211 213 217 222 226 229 229 227 227 227 228 228 227 226 225 226 226 225 225 228 232 237 241 244 245 245 246 250 254 261 267 272 276 279 282 283 285 287 286 286 285 283 282 282 281 280 280 280 280 280 280 281 281 282 283 282 282 282 281 282 285 289 292 293 295 298 299 301 305 307 307 308 312 316 319 322 323
194 193 193 197 202 205 206 209 211 212 215 218 219 222 227 232 233 232 230 230 231 231 232 231 229 229 228 228 228 229 232 237 241 242 243 243 243 246 252 258 264 269 274 279 283 286 288 291 293 293 292 291 289 287 286 284 283 282 282 282 282 282 283 282 283 284 284 285 284 281 281 281 283 289 293 295 298 300 302 306 308 307 309 313 317 320 322 322
197 197 200 205 208 211 213 216 218 218 219 223 224 227 232 234 235 235 234 234 235 235 234 232 231 231 231 230 231 235 239 242 244 243 242 241 242 248 255 261 266 270 274 280 284 288 291 293 296 297 297 296 295 293 290 287 285 285 284 285 285 286 286 286 287 287 288 290 289 288 292 287 283 285 291 296 300 301 305 311 312 310 309 313 315 317 318 319
201 205 211 214 216 220 221 223 226 225 225 228 229 232 235 236 238 239 239 237 238 238 237 235 234 233 234 236 238 242 244 244 244 242 241 242 246 252 258 263 267 270 274 278 283 287 290 292 295 297 297 299 299 298 296 293 289 287 286 286 286 286 286 287 288 290 291 294 294 294 300 298 293 292 293 296 300 301 305 311 313 311 309 310 312 312 314 316
206 211 217 219 223 228 228 230 231 230 231 234 236 237 237 238 241 243 242 241 241 240 239 238 238 238 240 243 245 246 246 244 242 241 243 247 251 255 260 263 267 271 274 278 282 285 288 290 291 294 294 295 296 297 297 296 294 291 289 288 287 286 286 286 287 288 290 294 294 293 299 304 300 297 296 296 297 298 302 307 310 309 308 308 309 310 311 313
213 218 221 223 228 231 232 233 234 233 235 239 240 241 241 243 244 245 244 243 241 240 239 239 240 242 244 246 247 247 246 244 242 244 247 250 254 257 260 264 268 272 276 279 282 284 286 287 289 290 291 292 292 293 293 293 293 292 291 290 289 290 290 290 290 289 290 295 292 290 301 309 297 294 296 297 295 296 300 305 307 306 305 306 307 309 310 311
221 224 226 227 231 232 232 233 234 235 238 240 242 243 245 246 246 246 245 243 241 240 239 240 241 243 245 246 247 247 246 245 245 247 250 253 257 260 263 267 270 273 276 279 281 283 285 287 287 286 286 286 287 288 289 290 291 293 295 294 294 296 295 295 295 294 294 294 289 291 305 305 295 295 297 295 293 296 300 304 305 305 304 304 305 306 308 309
224 227 229 230 230 231 231 232 234 236 238 240 243 245 246 247 247 246 245 244 242 240 239 240 241 242 244 245 246 246 246 246 248 250 254 257 260 263 266 269 272 274 277 278 279 281 283 285 286 286 286 284 283 285 285 285 288 292 294 295 297 297 297 297 297 296 295 290 288 295 301 296 295 299 298 295 295 298 301 303 304 305 304 302 303 304 306 307
225 226 229 231 231 231 231 232 234 236 240 242 245 247 248 248 247 246 246 244 243 243 242 242 243 244 245 245 246 247 248 249 252 254 257 260 262 266 268 271 274 275 276 277 277 278 281 283 285 286 287 287 287 288 288 288 289 290 290 293 295 295 296 297 297 295 293 289 291 298 296 291 294 296 293 294 297 299 300 301 302 302 302 302 302 303 305 305
227 229 231 232 233 233 232 234 236 238 242 244 246 248 249 249 249 248 247 246 245 245 245 246 246 246 247 248 248 250 251 253 255 258 260 263 265 267 269 272 275 275 276 276 277 278 280 282 285 286 287 289 290 291 291 291 292 292 293 294 295 296 298 298 297 296 293 292 295 298 292 292 297 294 289 291 295 296 298 300 300 299 299 300 302 303 303 304
229 231 234 234 235 237 236 238 239 240 241 243 244 246 248 249 250 249 249 248 248 248 248 248 249 249 250 251 252 253 254 256 258 261 262 264 266 267 270 273 274 275 276 277 278 279 279 281 285 286 287 290 291 291 292 291 292 293 294 296 297 298 298 298 299 298 296 296 299 297 294 296 298 295 292 293 294 295 298 299 299 298 298 299 301 302 303 303
230 231 234 235 236 238 239 239 240 241 242 243 244 246 247 249 250 251 250 250 251 251 251 251 252 253 253 255 255 256 257 258 260 263 265 266 267 268 270 272 273 275 276 277 278 280 280 281 283 283 285 287 290 291 291 290 290 290 293 297 297 294 294 296 297 297 296 297 298 296 296 298 297 294 294 294 294 295 297 297 297 298 298 299 300 301 301 303
232 232 234 236 237 238 239 240 241 243 244 245 246 247 249 250 252 253 253 253 253 254 254 254 255 256 257 257 258 258 260 261 263 264 266 267 268 270 270 272 273 275 276 278 279 280 280 281 282 282 281 283 287 288 288 289 289 289 293 298 295 291 292 294 295 295 295 295 295 295 296 297 295 294 294 294 294 294 295 295 296 296 297 298 298 299 300 301
233 234 235 237 239 241 242 243 244 245 247 248 249 250 252 253 254 255 255 256 256 256 257 258 259 259 260 260 261 261 262 263 264 265 266 267 269 270 271 272 274 275 276 278 279 280 281 281 282 282 281 282 284 284 285 286 285 287 293 294 291 290 293 293 294 294 294 294 294 295 295 295 295 294 294 293 293 293 294 294 294 295 296 296 297 298 299 301
236 237 238 239 241 244 245 246 247 248 250 252 253 254 255 256 257 257 258 258 259 259 259 260 261 262 262 263 263 264 264 265 265 266 266 267 268 270 271 272 273 274 275 277 278 280 281 281 282 282 281 282 283 284 285 284 284 288 292 290 288 290 292 292 293 293 292 292 293 294 294 294 294 294 293 293 293 293 293 293 293 294 295 295 296 298 299 300
Height
5771 5773 5774 5776 5778 5780 5782 5784 5786 5788 5791 5794 5798 5801 5803 5805 5806 5808 5810 5812 5814 5815 5817 5818 5820 5821 5824 5827 5829 5830 5831 5832 5832 5833 5834 5834 5835 5836 5837 5838 5839 5840 5841 5843 5844 5846 5847 5849 5850 5852 5852 5853 5854 5855 5855 5856 5856 5857 5857 5857 5857 5856 5856 5855 5855 5854 5854 5853 5853 5852 5852 5851 5851 5851 5850 5850 5849 5849 5848 5847 5846 5845 5844 5843 5842 5840 5839 5838
5772 5774 5775 5777 5778 5780 5782 5784 5787 5789 5792 5796 5799 5801 5803 5805 5806 5808 5810 5812 5814 5816 5817 5819 5820 5822 5825 5827 5829 5830 5831 5831 5832 5833 5833 5834 5836 5837 5837 5838 5839 5841 5842 5844 5845 5847 5849 5850 5851 5852 5853 5854 5854 5855 5856 5856 5857 5857 5857 5857 5857 5856 5856 5855 5854 5854 5854 5853 5853 5853 5852 5851 5851 5851 5851 5850 5850 5849 5848 5847 5846 5845 5844 5843 5842 5841 5839 5838
5773 5775 5776 5778 5779 5781 5783 5786 5788 5791 5794 5797 5799 5801 5803 5804 5806 5808 5810 5813 5814 5816 5817 5819 5821 5824 5825 5827 5828 5829 5830 5831 5831 5832 5834 5835 5836 5837 5838 5839 5840 5841 5843 5845 5846 5848 5850 5851 5852 5853 5854 5854 5855 5856 5856 5857 5857 5857 5857 5857 5857 5856 5855 5855 5855 5854 5854 5853 5853 5853 5852 5852 5851 5851 5851 5851 5850 5849 5848 5848 5847 5846 5845 5843 5842 5841 5840 5838
5774 5776 5777 5778 5780 5782 5784 5787 5789 5791 5794 5797 5799 5801 5802 5804 5806 5809 5811 5813 5815 5816 5818 5820 5822 5825 5826 5827 5829 5829 5830 5830 5831 5833 5835 5836 5837 5838 5839 5840 5841 5842 5844 5846 5847 5849 5850 5852 5853 5853 5854 5855 5855 5856 5857 5857 5857 5857 5857 5857 5857 5856 5855 5855 5855 5854 5854 5854 5853 5853 5852 5852 5852 5851 5851 5851 5850 5850 5849 5848 5847 5846 5845 5844 5843 5841 5840 5839
5775 5776 5778 5779 5781 5783 5785 5788 5789 5792 5794 5797 5799 5800 5802 5805 5807 5810 5812 5814 5815 5817 5819 5821 5823 5825 5827 5828 5829 5830 5830 5831 5832 5834 5836 5836 5837 5838 5839 5841 5842 5844 5845 5847 5848 5850 5851 5852 5853 5854 5854 5855 5856 5857 5857 5857 5857 5857 5857 5857 5856 5856 5855 5855 5855 5855 5854 5854 5853 5853 5852 5852 5852 5852 5852 5851 5851 5850 5849 5848 5847 5846 5845 5844 5843 5841 5840 5839
5775 5776 5778 5780 5782 5784 5786 5789 5790 5792 5794 5796 5798 5800 5803 5805 5808 5810 5812 5814 5816 5818 5820 5822 5824 5825 5827 5828 5829 5830 5831 5832 5833 5834 5836 5837 5838 5839 5840 5842 5844 5845 5847 5848 5849 5851 5852 5853 5854 5854 5855 5856 5857 5857 5857 5857 5857 5857 5857 5857 5856 5856 5855 5855 5855 5855 5854 5854 5853 5853 5852 5852 5852 5852 5852 5851 5851 5850 5849 5848 5847 5846 5845 5844 5843 5842 5840 5839
5776 5777 5778 5780 5782 5784 5787 5788 5790 5792 5795 5797 5799 5801 5804 5806 5808 5811 5813 5815 5817 5819 5821 5823 5824 5826 5827 5828 5830 5831 5831 5832 5833 5835 5837 5838 5839 5841 5842 5843 5845 5846 5848 5849 5850 5851 5852 5853 5854 5855 5855 5856 5857 5857 5858 5857 5858 5857 5857 5857 5856 5856 5856 5856 5855 5855 5854 5854 5853 5853 5852 5852 5852 5852 5852 5852 5851 5850 5849 5848 5847 5846 5845 5844 5843 5842 5840 5839
5777 5778 5779 5781 5783 5785 5786 5789 5791 5793 5795 5798 5800 5802 5804 5807 5809 5811 5813 5816 5818 5820 5822 5824 5825 5826 5828 5829 5830 5831 5832 5832 5834 5836 5837 5839 5840 5842 5843 5844 5846 5847 5848 5850 5851 5852 5853 5854 5854 5855 5856 5857 5857 5858 5857 5858 5857 5857 5857 5856 5856 5856 5856 5856 5855 5855 5854 5854 5853 5853 5852 5852 5852 5852 5852 5852 5851 5850 5849 5848 5847 5846 5845 5844 5843 5841 5840 5839
5778 5779 5780 5781 5783 5785 5787 5790 5792 5794 5797 5799 5801 5803 5806 5808 5811 5813 5815 5817 5819 5821 5823 5824 5825 5827 5828 5829 5831 5832 5832 5833 5835 5836 5838 5840 5841 5843 5844 5845 5847 5848 5849 5850 5852 5853 5853 5854 5855 5856 5856 5857 5857 5857 5857 5857 5857 5857 5857 5856 5856 5856 5856 5856 5855 5855 5854 5854 5853 5853 5852 5852 5852 5852 5852 5852 5851 5850 5849 5848 5847 5846 5845 5844 5843 5841 5840 5839
5779 5780 5781 5783 5785 5787 5789 5791 5793 5796 5798 5801 5803 5805 5808 5810 5812 5814 5816 5818 5820 5821 5823 5824 5826 5827 5829 5830 5831 5832 5833 5835 5835 5837 5839 5840 5842 5844 5845 5846 5848 5849 5850 5851 5852 5853 5854 5855 5855 5856 5856 5857 5857 5857 5857 5857 5857 5857 5857 5857 5856 5856 5856 5856 5855 5855 5854 5854 5853 5853 5852 5852 5852 5852 5852 5852 5851 5850 5849 5848 5847 5846 5845 5844 5843 5841 5840 5839
5781 5782 5783 5785 5787 5789 5791 5793 5795 5798 5800 5803 5805 5807 5809 5811 5813 5815 5817 5819 5820 5822 5824 5825 5826 5828 5829 5831 5831 5832 5834 5835 5836 5837 5839 5841 5843 5844 5846 5848 5849 5850 5851 5852 5853 5854 5854 5855 5856 5856 5856 5857 5857 5857 5857 5857 5857 5857 5857 5857 5857 5856 5856 5855 5855 5854 5854 5853 5853 5852 5852 5852 5852 5852 5852 5851 5851 5850 5849 5848 5847 5846 5845 5843 5842 5841 5840 5838
5784 5785 5786 5788 5789 5791 5793 5796 5798 5800 5802 5805 5807 5809 5811 5813 5815 5816 5818 5820 5821 5823 5824 5825 5827 5829 5830 5831 5832 5833 5835 5836 5837 5838 5840 5842 5843 5845 5847 5848 5849 5850 5851 5852 5853 5854 5855 5855 5855 5856 5856 5857 5857 5857 5857 5857 5857 5857 5857 5857 5857 5856 5856 5855 5855 5854 5853 5853 5852 5852 5852 5852 5852 5851 5851 5851 5850 5849 5849 5848 5847 5845 5844 5843 5842 5841 5839 5838
5787 5788 5789 5791 5793 5794 5796 5798 5800 5802 5804 5807 5808 5810 5812 5814 5816 5818 5819 5821 5822 5823 5825 5826 5828 5829 5831 5832 5833 5834 5835 5837 5838 5839 5841 5842 5844 5846 5847 5849 5850 5851 5851 5852 5853 5854 5855 5855 5855 5856 5856 5856 5857 5857 5857 5857 5857 5857 5857 5857 5856 5856 5855 5855 5854 5853 5853 5852 5852 5852 5851 5851 5851 5851 5850 5850 5849 5849 5848 5847 5846 5845 5844 5843 5842 5841 5839 5838
5790 5791 5793 5794 5796 5797 5799 5801 5803 5805 5807 5808 5810 5812 5814 5815 5817 5818 5820 5821 5823 5824 5826 5828 5829 5830 5831 5832 5833 5835 5836 5837 5839 5840 5841 5843 5845 5846 5847 5849 5850 5851 5852 5853 5853 5854 5854 5855 5855 5856 5856 5856 5856 5857 5857 5857 5857 5857 5857 5857 5856 5855 5855 5854 5853 5853 5852 5851 5851 5851 5851 5850 5850 5850 5850 5849 5849 5848 5848 5847 5846 5845 5844 5843 5842 5841 5839 5838
5793 5795 5796 5798 5799 5800 5802 5803 5805 5807 5808 5810 5811 5813 5815 5816 5818 5819 5820 5822 5824 5826 5828 5829 5831 5831 5831 5832 5834 5836 5837 5838 5839 5841 5842 5843 5845 5846 5847 5849 5850 5851 5852 5853 5853 5854 5854 5855 5855 5856 5856 5856 5856 5856 5857 5857 5857 5857 5857 5856 5855 5855 5854 5853 5852 5852 5851 5851 5850 5850 5850 5849 5849 5849 5849 5849 5848 5848 5847 5846 5846 5845 5844 5844 5842 5841 5839 5838
5796 5798 5799 5801 5802 5803 5804 5806 5807 5809 5810 5811 5813 5814 5816 5817 5818 5820 5821 5823 5825 5827 5829 5830 5831 5832 5833 5834 5835 5837 5838 5838 5840 5841 5842 5844 5845 5846 5848 5849 5850 5851 5852 5852 5853 5853 5854 5855 5855 5856 5856 5856 5856 5857 5857 5857 5857 5857 5856 5855 5855 5854 5853 5852 5852 5851 5851 5850 5850 5849 5849 5849 5848 5848 5848 5848 5848 5847 5846 5846 5846 5845 5844 5843 5842 5841 5839 5838
5799 5800 5802 5803 5804 5805 5806 5808 5810 5811 5812 5813 5814 5815 5816 5818 5819 5821 5823 5825 5827 5828 5829 5830 5832 5833 5834 5835 5837 5837 5838 5839 5840 5842 5843 5844 5845 5847 5848 5849 5851 5851 5852 5852 5853 5854 5854 5855 5855 5856 5856 5856 5856 5857 5857 5857 5857 5856 5856 5855 5854 5853 5852 5852 5851 5850 5850 5850 5849 5848 5848 5848 5848 5847 5847 5847 5847 5846 5846 5845 5845 5845 5844 5843 5842 5840 5839 5837
5801 5803 5804 5805 5806 5807 5808 5810 5811 5812 5813 5814 5815 5816 5817 5819 5820 5823 5825 5827 5828 5829 5830 5831 5833 5834 5835 5836 5837 5838 5839 5839 5841 5842 5843 5845 5846 5847 5849 5850 5851 5851 5852 5852 5853 5854 5854 5855 5855 5855 5856 5856 5856 5857 5857 5857 5856 5856 5855 5854 5853 5852 5852 5851 5850 5850 5850 5849 5848 5848 5847 5847 5847 5846 5846 5846 5846 5845 5845 5844 5844 5844 5843 5842 5841 5840 5839 5837
5803 5805 5806 5807 5808 5809 5810 5812 5813 5813 5814 5815 5815 5817 5818 5820 5822 5824 5826 5828 5829 5830 5831 5832 5833 5834 5835 5837 5838 5839 5839 5840 5841 5843 5844 5845 5847 5848 5849 5850 5851 5851 5852 5853 5853 5854 5854 5855 5855 5855 5856 5856 5856 5856 5856 5856 5856 5855 5854 5853 5853 5852 5851 5850 5850 5850 5849 5849 5848 5847 5847 5846 5846 5846 5845 5845 5845 5844 5844 5843 5843 5843 5842 5842 5841 5839 5838 5836
5806 5807 5808 5809 5810 5811 5812 5813 5814 5815 5815 5816 5817 5818 5820 5821 5823 5825 5827 5829 5830 5831 5832 5833 5834 5835 5836 5838 5839 5840 5840 5841 5842 5844 5845 5846 5847 5848 5849 5850 5851 5852 5852 5853 5853 5854 5854 5855 5855 5855 5856 5856 5856 5856 5856 5856 5855 5855 5854 5853 5852 5852 5851 5850 5849 5849 5849 5848 5848 5847 5847 5846 5846 5846 5845 5845 5844 5843 5843 5843 5843 5842 5842 5841 5840 5839 5837 5836
5807 5808 5809 5810 5811 5812 5813 5814 5815 5816 5816 5817 5818 5820 5821 5823 5825 5826 5828 5829 5830 5832 5833 5834 5835 5836 5837 5838 5839 5840 5841 5842 5843 5844 5846 5847 5848 5848 5849 5850 5851 5852 5852 5853 5853 5854 5854 5855 5855 5855 5855 5855 5855 5855 5855 5855 5855 5854 5854 5853 5852 5852 5851 5850 5849 5849 5848 5848 5847 5847 5847 5846 5846 5845 5845 5844 5844 5843 5843 5842 5842 5842 5841 5840 5839 5838 5837 5835
5808 5809 5810 5811 5812 5813 5814 5815 5816 5817 5818 5818 5819 5821 5822 5824 5825 5827 5829 5830 5831 5832 5833 5834 5836 5837 5838 5839 5840 5841 5842 5843 5844 5845 5846 5847 5848 5849 5849 5850 5851 5852 5852 5853 5853 5854 5854 5854 5855 5855 5855 5855 5855 5855 5855 5855 5854 5854 5854 5853 5852 5852 5851 5850 5849 5848 5848 5847 5847 5846 5846 5845 5845 5844 5844 5843 5843 5842 5842 5842 5842 5841 5840 5839 5838 5837 5836 5834
5809 5810 5810 5811 5813 5814 5815 5815 5816 5817 5818 5819 5820 5822 5823 5824 5826 5827 5829 5831 5832 5833 5834 5835 5836 5837 5839 5840 5840 5841 5842 5843 5844 5845 5846 5847 5848 5848 5849 5850 5851 5851 5852 5853 5853 5853 5854 5854 5854 5854 5854 5854 5854 5854 5854 5854 5854 5854 5854 5853 5853 5852 5851 5850 5849 5849 5848 5847 5846 5846 5845 5845 5844 5844 5843 5843 5842 5842 5842 5841 5841 5841 5840 5839 5838 5836 5835 5833
5810 5810 5811 5812 5813 5814 5815 5816 5817 5818 5819 5820 5821 5822 5824 5825 5827 5828 5830 5831 5833 5834 5835 5836 5837 5838 5839 5840 5841 5841 5842 5843 5844 5845 5846 5847 5847 5848 5849 5850 5851 5851 5852 5852 5853 5853 5853 5853 5853 5853 5854 5854 5854 5854 5854 5854 5854 5854 5853 5853 5852 5852 5851 5850 5849 5848 5848 5847 5846 5845 5845 5844 5844 5843 5843 5842 5842 5842 5841 5841 5840 5840 5839 5838 5837 5835 5834 5832
5811 5811 5812 5813 5813 5814 5815 5816 5817 5818 5819 5821 5822 5823 5825 5826 5827 5829 5830 5832 5833 5835 5836 5836 5837 5838 5839 5840 5841 5841 5842 5843 5844 5845 5845 5846 5847 5848 5849 5850 5850 5851 5851 5852 5852 5852 5852 5852 5853 5853 5853 5853 5853 5853 5853 5853 5853 5853 5853 5852 5852 5851 5850 5850 5849 5848 5847 5846 5845 5845 5844 5844 5843 5843 5842 5842 5841 5841 5841 5840 5840 5839 5838 5837 5836 5835 5833 5832
5812 5813 5814 5814 5815 5815 5816 5818 5819 5819 5821 5822 5823 5824 5826 5827 5828 5829 5831 5832 5833 5835 5835 5836 5837 5838 5839 5840 5840 5841 5842 5843 5844 5845 5845 5846 5847 5848 5849 5849 5850 5850 5851 5851 5851 5851 5852 5852 5852 5852 5852 5852 5852 5853 5853 5853 5853 5852 5852 5852 5851 5850 5850 5849 5848 5848 5847 5846 5845 5844 5843 5843 5842 5842 5841 5841 5840 5840 5840 5839 5839 5838 5837 5836 5835 5834 5833 5832
5813 5814 5815 5815 5816 5817 5818 5819 5820 5821 5822 5823 5824 5825 5827 5828 5829 5830 5831 5832 5833 5834 5835 5836 5837 5837 5838 5839 5840 5841 5842 5843 5844 5845 5845 5846 5847 5848 5848 5849 5849 5850 5850 5850 5850 5851 5851 5851 5851 5851 5851 5852 5852 5852 5852 5852 5852 5851 5851 5851 5850 5849 5849 5848 5847 5847 5846 5845 5844 5843 5842 5842 5841 5840 5840 5840 5839 5839 5839 5838 5838 5837 5836 5835 5834 5833 5832 5831
5814 5814 5815 5816 5817 5818 5819 5819 5820 5821 5823 5824 5825 5826 5827 5828 5829 5830 5831 5832 5833 5834 5835 5836 5836 5837 5838 5839 5839 5840 5841 5842 5843 5844 5845 5846 5847 5847 5848 5848 5849 5849 5849 5849 5850 5850 5850 5850 5850 5850 5850 5851 5851 5851 5851 5851 5851 5850 5850 5850 5849 5848 5848 5847 5847 5846 5845 5844 5843 5842 5841 5840 5840 5839 5839 5838 5838 5838 5837 5837 5836 5836 5835 5834 5833 5832 5831 5830
5814 5815 5816 5816 5817 5818 5819 5820 5821 5822 5823 5824 5825 5826 5827 5828 5829 5830 5831 5832 5833 5833 5834 5835 5836 5837 5837 5838 5839 5840 5841 5842 5843 5844 5845 5845 5846 5847 5847 5847 5848 5848 5848 5849 5849 5849 5849 5849 5849 5849 5850 5850 5850 5850 5850 5850 5850 5849 5849 5848 5848 5847 5847 5846 5846 5845 5844 5843 5842 5841 5840 5839 5839 5838 5838 5837 5837 5837 5836 5836 5835 5835 5834 5833 5832 5831 5830 5829
5815 5815 5816 5817 5818 5819 5820 5821 5821 5822 5823 5824 5825 5826 5827 5828 5829 5830 5831 5832 5832 5833 5834 5835 5836 5836 5837 5838 5839 5840 5841 5842 5842 5843 5844 5845 5845 5846 5846 5847 5847 5847 5848 5848 5848 5848 5848 5848 5848 5848 5849 5849 5849 5849 5849 5849 5848 5848 5848 5847 5847 5846 5845 5845 5844 5844 5843 5842 5842 5840 5839 5838 5838 5837 5837 5836 5836 5836 5835 5835 5834 5833 5833 5832 5831 5830 5829 5828
5815 5816 5817 5818 5819 5820 5821 5821 5822 5823 5823 5824 5825 5826 5827 5828 5829 5830 5831 5831 5832 5833 5834 5834 5835 5836 5837 5838 5838 5839 5840 5841 5842 5843 5843 5844 5844 5845 5845 5846 5846 5846 5847 5847 5847 5847 5847 5847 5847 5847 5848 5848 5848 5847 5847 5847 5847 5846 5846 5846 5845 5845 5844 5844 5843 5842 5842 5841 5841 5840 5838 5838 5837 5837 5836 5836 5835 5835 5834 5834 5833 5832 5831 5831 5830 5829 5827 5826
5816 5817 5818 5819 5820 5821 5821 5822 5823 5823 5824 5824 5825 5826 5827 5828 5829 5830 5831 5831 5832 5833 5833 5834 5835 5836 5837 5837 5838 5839 5840 5840 5841 5842 5842 5843 5844 5844 5844 5845 5845 5845 5846 5846 5846 5846 5846 5846 5846 5846 5846 5846 5846 5846 5846 5846 5845 5845 5844 5844 5844 5843 5843 5842 5841 5841 5840 5840 5839 5839 5838 5837 5837 5836 5835 5835 5834 5834 5833 5833 5832 5831 5830 5829 5828 5827 5826 5825
5816 5817 5818 5819 5820 5821 5822 5822 5823 5823 5824 5824 5825 5826 5827 5828 5829 5830 5831 5831 5832 5832 5833 5834 5835 5835 5836 5837 5838 5838 5839 5840 5840 5841 5842 5842 5843 5843 5844 5844 5844 5845 5845 5845 5845 5845 5845 5845 5845 5845 5845 5845 5845 5844 5844 5844 5844 5843 5843 5842 5842 5841 5841 5840 5840 5840 5839 5838 5838 5837 5837 5837 5836 5835 5835 5834 5833 5833 5832 5831 5830 5830 5829 5828 5827 5826 5824 5823
5817 5818 5819 5820 5820 5821 5822 5823 5823 5823 5824 5824 5825 5826 5827 5828 5829 5829 5830 5831 5831 5832 5833 5833 5834 5835 5836 5837 5837 5838 5839 5839 5840 5840 5841 5841 5842 5842 5843 5843 5843 5843 5844 5844 5844 5844 5844 5843 5843 5843 5843 5843 5843 5842 5842 5842 5842 5841 5841 5841 5840 5840 5839 5839 5838 5838 5837 5837 5836 5836 5836 5835 5835 5834 5833 5833 5832 5831 5831 5830 5829 5828 5827 5826 5825 5823 5822 5821
5817 5818 5819 5820 5820 5821 5822 5823 5823 5824 5824 5824 5825 5826 5827 5828 5829 5829 5830 5831 5831 5831 5832 5833 5834 5835 5835 5836 5837 5838 5838 5839 5839 5839 5840 5840 5841 5841 5842 5842 5842 5842 5842 5842 5842 5842 5842 5842 5842 5841 5841 5841 5841 5840 5840 5840 5839 5839 5839 5838 5838 5838 5837 5837 5836 5836 5835 5836 5835 5834 5834 5834 5833 5832 5832 5831 5830 5830 5829 5828 5827 5826 5825 5824 5822 5821 5820 5819
5817 5818 5819 5820 5821 5821 5822 5823 5823 5823 5824 5824 5825 5826 5827 5828 5828 5829 5830 5830 5831 5831 5832 5832 5833 5834 5835 5836 5837 5837 5837 5838 5838 5839 5839 5840 5840 5840 5841 5841 5841 5841 5841 5841 5841 5841 5841 5840 5840 5840 5839 5839 5839 5838 5838 5838 5837 5837 5837 5836 5836 5836 5835 5835 5834 5834 5833 5833 5833 5833 5832 5831 5831 5830 5830 5829 5828 5828 5827 5826 5825 5824 5823 5822 5820 5819 5818 5817
5817 5818 5819 5820 5821 5821 5822 5822 5823 5823 5824 5824 5825 5826 5826 5827 5828 5828 5829 5829 5830 5830 5831 5832 5833 5834 5835 5835 5836 5836 5837 5837 5837 5838 5838 5839 5839 5840 5840 5840 5840 5840 5840 5840 5840 5839 5839 5839 5838 5838 5837 5837 5837 5836 5836 5835 5835 5835 5834 5834 5834 5833 5833 5832 5832 5832 5831 5831 5831 5831 5830 5828 5828 5828 5828 5827 5826 5826 5825 5824 5823 5822 5820 5820 5819 5818 5816 5815
5817 5818 5819 5820 5820 5821 5822 5822 5823 5823 5824 5824 5825 5825 5826 5827 5827 5828 5828 5829 5829 5830 5830 5831 5832 5833 5834 5835 5835 5836 5836 5836 5837 5837 5838 5838 5838 5839 5839 5839 5839 5839 5839 5838 5838 5838 5838 5837 5836 5836 5835 5835 5835 5834 5834 5833 5833 5833 5832 5832 5831 5831 5831 5830 5830 5829 5829 5829 5829 5829 5829 5826 5825 5825 5825 5825 5824 5823 5823 5822 5821 5820 5818 5818 5817 5816 5814 5813
5817 5818 5819 5819 5820 5821 5821 5822 5822 5823 5823 5824 5824 5825 5825 5826 5827 5827 5827 5828 5828 5829 5830 5830 5831 5832 5833 5834 5834 5835 5835 5835 5836 5836 5837 5837 5837 5838 5838 5838 5838 5837 5837 5837 5837 5836 5836 5836 5835 5834 5834 5833 5833 5832 5832 5831 5831 5830 5830 5830 5829 5829 5828 5828 5828 5827 5827 5827 5827 5827 5827 5825 5824 5823 5822 5822 5822 5821 5820 5820 5819 5818 5816 5815 5814 5813 5812 5810
5816 5817 5818 5819 5819 5820 5821 5821 5822 5822 5823 5823 5824 5824 5825 5825 5826 5826 5827 5827 5828 5828 5829 5829 5830 5831 5832 5833 5833 5834 5834 5835 5835 5835 5836 5836 5836 5837 5837 5836 5836 5836 5836 5836 5835 5835 5835 5834 5834 5833 5832 5832 5831 5831 5830 5830 5829 5829 5828 5828 5827 5827 5826 5826 5826 5825 5825 5825 5824 5825 5825 5823 5822 5821 5820 5819 5819 5818 5817 5817 5816 5815 5814 5813 5812 5811 5809 5808
5816 5816 5817 5818 5819 5819 5820 5821 5821 5822 5822 5822 5823 5823 5824 5825 5825 5825 5826 5826 5827 5827 5828 5829 5829 5830 5831 5832 5832 5833 5833 5834 5834 5834 5835 5835 5835 5835 5835 5835 5835 5835 5835 5834 5834 5834 5833 5833 5832 5832 5831 5831 5830 5829 5829 5828 5828 5827 5826 5826 5825 5825 5825 5824 5824 5824 5823 5823 5822 5822 5823 5821 5819 5820 5819 5817 5816 5815 5815 5814 5813 5812 5811 5810 5809 5808 5807 5806
5814 5815 5816 5817 5818 5819 5819 5820 5820 5821 5821 5821 5822 5822 5823 5823 5824 5824 5825 5825 5826 5826 5827 5828 5828 5829 5830 5831 5831 5832 5832 5833 5833 5833 5834 5834 5834 5834 5834 5834 5834 5834 5833 5833 5832 5832 5832 5831 5831 5830 5830 5829 5829 5828 5827 5827 5826 5825 5825 5824 5824 5823 5823 5823 5823 5822 5822 5821 5820 5820 5821 5820 5818 5817 5816 5816 5814 5813 5812 5812 5811 5810 5808 5807 5806 5804 5803 5802
5813 5814 5815 5816 5817 5818 5818 5819 5819 5819 5820 5820 5821 5821 5822 5822 5822 5823 5824 5824 5825 5825 5826 5827 5827 5828 5829 5830 5830 5831 5831 5832 5832 5832 5832 5833 5833 5833 5832 5832 5832 5832 5832 5831 5831 5830 5830 5829 5829 5829 5828 5828 5827 5827 5826 5825 5825 5824 5823 5823 5822 5822 5821 5821 5821 5821 5820 5820 5818 5818 5819 5819 5816 5814 5814 5813 5812 5811 5810 5809 5808 5807 5805 5803 5802 5800 5799 5798
5812 5813 5814 5815 5816 5816 5817 5817 5818 5818 5819 5819 5820 5820 5820 5821 5821 5822 5822 5823 5824 5824 5825 5826 5826 5827 5828 5828 5829 5829 5830 5830 5831 5831 5831 5831 5831 5831 5831 5831 5831 5830 5830 5829 5829 5828 5828 5827 5827 5827 5827 5826 5825 5825 5825 5824 5823 5823 5822 5821 5821 5820 5820 5819 5819 5819 5819 5818 5816 5816 5817 5817 5814 5812 5811 5809 5808 5808 5807 5806 5804 5803 5802 5800 5798 5796 5795 5793
5811 5812 5813 5814 5814 5815 5816 5816 5816 5817 5817 5818 5818 5818 5819 5819 5820 5821 5821 5822 5822 5823 5824 5824 5825 5826 5826 5827 5827 5828 5828 5829 5829 5829 5829 5829 5829 5829 5829 5829 5829 5828 5828 5827 5827 5827 5826 5826 5825 5825 5824 5824 5824 5823 5823 5823 5822 5821 5820 5819 5819 5818 5817 5817 5817 5817 5816 5815 5814 5814 5814 5813 5813 5810 5806 5804 5803 5803 5803 5802 5800 5798 5797 5795 5793 5792 5790 5789
5810 5811 5812 5812 5813 5814 5814 5815 5815 5816 5816 5816 5817 5817 5818 5818 5819 5819 5820 5820 5821 5822 5822 5823 5824 5824 5825 5825 5826 5826 5827 5827 5827 5827 5827 5827 5827 5827 5827 5827 5826 5826 5826 5825 5825 5824 5824 5824 5823 5822 5822 5821 5821 5821 5821 5820 5820 5819 5819 5818 5817 5816 5815 5815 5814 5814 5812 5811 5812 5813 5810 5809 5811 5809 5803 5800 5799 5798 5798 5797 5796 5794 5791 5789 5788 5787 5785 5783
5809 5810 5810 5811 5811 5812 5813 5813 5814 5814 5814 5815 5816 5816 5816 5817 5817 5818 5819 5819 5820 5820 5821 5822 5822 5822 5823 5823 5824 5824 5825 5825 5825 5825 5825 5825 5825 5825 5825 5824 5824 5824 5823 5823 5822 5822 5822 5822 5821 5820 5820 5819 5819 5818 5818 5817 5817 5817 5816 5816 5815 5813 5812 5812 5812 5811 5808 5807 5809 5810 5807 5805 5807 5806 5801 5799 5796 5794 5792 5792 5791 5789 5787 5784 5782 5780 5779 5778
5808 5808 5809 5809 5810 5810 5811 5811 5812 5813 5813 5814 5814 5815 5815 5816 5816 5817 5817 5818 5818 5819 5819 5820 5820 5820 5821 5821 5822 5822 5822 5822 5822 5823 5822 5822 5822 5822 5822 5822 5822 5821 5821 5820 5820 5819 5819 5819 5819 5817 5817 5817 5816 5815 5815 5814 5814 5814 5813 5813 5812 5810 5809 5809 5809 5807 5805 5804 5804 5804 5803 5802 5802 5800 5797 5796 5794 5790 5788 5787 5785 5783 5781 5779 5777 5774 5772 5771
5806 5807 5807 5808 5808 5809 5810 5810 5811 5811 5812 5813 5813 5813 5814 5814 5815 5815 5816 5816 5816 5817 5817 5818 5818 5818 5819 5819 5819 5819 5819 5819 5820 5820 5820 5820 5820 5820 5820 5819 5819 5819 5818 5817 5817 5817 5816 5816 5816 5815 5815 5814 5813 5812 5812 5811 5811 5811 5811 5810 5809 5807 5806 5805 5805 5803 5801 5800 5799 5798 5798 5798 5797 5795 5793 5791 5789 5786 5784 5782 5780 5777 5775 5774 5771 5769 5766 5764
5804 5805 5806 5806 5807 5808 5808 5809 5809 5810 5810 5811 5811 5812 5812 5812 5813 5813 5814 5814 5814 5815 5815 5815 5815 5816 5816 5816 5816 5816 5817 5817 5817 5817 5817 5817 5817 5817 5817 5817 5816 5816 5815 5815 5814 5814 5813 5813 5812 5811 5811 5812 5811 5809 5808 5807 5806 5807 5808 5808 5805 5803 5802 5802 5801 5799 5798 5796 5794 5793 5793 5792 5790 5789 5788 5786 5783 5781 5779 5777 5774 5772 5769 5768 5766 5763 5761 5759
5802 5803 5804 5804 5805 5806 5806 5807 5807 5808 5808 5809 5809 5809 5810 5810 5810 5811 5811 5812 5812 5812 5812 5812 5813 5813 5813 5813 5813 5813 5814 5814 5814 5814 5814 5814 5814 5813 5813 5813 5813 5813 5812 5811 5811 5810 5810 5809 5809 5807 5806 5808 5808 5806 5805 5804 5802 5803 5805 5804 5801 5799 5798 5798 5797 5795 5794 5792 5790 5789 5788 5786 5784 5783 5782 5780 5778 5775 5773 5771 5768 5766 5764 5761 5759 5757 5756 5754
5800 5801 5801 5802 5803 5803 5804 5805 5805 5806 5806 5806 5807 5807 5807 5808 5808 5808 5809 5809 5809 5809 5810 5810 5810 5810 5810 5810 5810 5810 5810 5810 5810 5810 5810 5810 5810 5810 5810 5810 5810 5809 5809 5808 5807 5807 5806 5805 5804 5803 5801 5802 5803 5802 5800 5799 5798 5800 5801 5799 5796 5795 5794 5793 5792 5791 5789 5787 5785 5784 5782 5781 5779 5776 5774 5773 5771 5769 5767 5764 5762 5760 5758 5755 5753 5751 5749 5747